[Iaude] MPEC E14: 2024 EC [a=2.83,e=0.68,i=2.0,H=24.0]
    mpec at cfa.harvard.edu 
    mpec at cfa.harvard.edu
       
    Sat Mar  2 14:36:38 EST 2024
    
    
  
M.P.E.C. 2024-E14                                 Issued 2024 March 2, 19:34 UT
     The Minor Planet Electronic Circulars contain information on unusual
         minor planets, routine data on comets and natural satellites,
         and occasional editorial announcements.  They are published
    on behalf of Division F of the International Astronomical Union by the
          Minor Planet Center, Smithsonian Astrophysical Observatory,
                          Cambridge, MA 02138, U.S.A.
			  
             Prepared using the Tamkin Foundation Computer Network
                              MPC at CFA.HARVARD.EDU
            URL https://www.minorplanetcenter.net/    ISSN 1523-6714
                                    2024 EC                                     
Observations:
     K24E00C* C2024 03 01.50056010 51 05.167+13 15 17.46         18.60wXEE014F51
     K24E00C  C2024 03 01.51261610 51 10.622+13 13 47.98         18.61wXEE014F51
     K24E00C  C2024 03 01.52472310 51 16.095+13 12 18.19         18.71wXEE014F51
     K24E00C  C2024 03 01.61493710 51 57.417+13 01 12.24         18.29GVEE014F52
     K24E00C  C2024 03 01.61558410 51 57.716+13 01 07.50         18.37GVEE014F52
     K24E00C KB2024 03 01.86257 10 54 07.66 +12 31 28.6          18.4 GXEE014K19
     K24E00C KB2024 03 01.86632 10 54 09.29 +12 31 03.3          18.0 GXEE014K19
     K24E00C KB2024 03 01.87006 10 54 10.90 +12 30 37.9          18.2 GXEE014K19
     K24E00C KB2024 03 01.88102 10 54 16.524+12 29 29.29         18.7 GXEE014J57
     K24E00C KC2024 03 01.88427910 54 17.059+12 28 46.92         18.5 GVEE014J95
     K24E00C KC2024 03 01.88532410 54 17.513+12 28 39.58         18.7 GVEE014J95
     K24E00C KC2024 03 01.88638910 54 17.966+12 28 32.88         18.3 GVEE014J95
     K24E00C KC2024 03 01.88746810 54 18.434+12 28 25.03         18.7 GVEE014J95
     K24E00C KB2024 03 01.88795 10 54 19.519+12 28 42.49         18.3 GXEE014J57
     K24E00C KC2024 03 01.89173410 54 19.47 +12 28 10.0          18.5 GVEE014L01
     K24E00C KC2024 03 01.89430710 54 20.56 +12 27 52.7          18.5 GVEE014L01
     K24E00C KB2024 03 01.89485 10 54 22.493+12 27 56.02         18.7 GXEE014J57
     K24E00C KC2024 03 01.89704410 54 21.73 +12 27 34.1          18.6 GVEE014L01
     K24E00C KC2024 03 01.89979910 54 22.91 +12 27 15.5          18.5 GVEE014L01
     K24E00C KB2024 03 01.90163 10 54 25.397+12 27 10.19         18.7 GXEE014J57
     K24E00C KB2024 03 01.90852 10 54 28.346+12 26 23.82         18.9 GXEE014J57
     K24E00C KB2024 03 01.91541 10 54 31.277+12 25 37.45         18.1 GXEE014J57
     K24E00C  C2024 03 02.01029 10 55 08.00 +12 17 27.0          18.4 GVEE014M28
     K24E00C  C2024 03 02.01233 10 55 08.81 +12 17 13.6          18.4 GVEE014M28
     K24E00C  C2024 03 02.01438 10 55 09.63 +12 16 59.6          18.4 GVEE014M28
     K24E00C |C2024 03 02.14074010 56 11.590+12 02 58.50         18.4 GVEE014807
     K24E00C |C2024 03 02.14294210 56 12.470+12 02 44.30         18.4 GVEE014807
     K24E00C |C2024 03 02.14478010 56 13.190+12 02 32.50         18.5 GVEE014807
     K24E00C  C2024 03 02.18505 10 56 32.75 +11 55 51.7          18.8 VtEE014V27
     K24E00C  C2024 03 02.19081 10 56 34.99 +11 55 15.6          18.0 VtEE014V27
     K24E00C  C2024 03 02.20003 10 56 38.67 +11 54 15.4          18.3 VtEE014V27
     K24E00C KC2024 03 02.22388710 56 48.19 +11 51 45.2          18.5 GXEE014858
     K24E00C KC2024 03 02.22614 10 56 49.39 +11 51 38.4          18.1 GVEE014V21
     K24E00C KC2024 03 02.23425310 56 52.29 +11 50 39.4          18.4 GXEE014858
     K24E00C KC2024 03 02.24035 10 56 54.94 +11 50 08.0          18.0 GVEE014V21
     K24E00C KC2024 03 02.24434310 56 56.21 +11 49 34.9          18.1 GXEE014858
     K24E00C KC2024 03 02.25456 10 57 00.42 +11 48 37.9          18.5 GVEE014V21
     K24E00C KC2024 03 02.26877 10 57 05.87 +11 47 07.5          18.6 GVEE014V21
     K24E00C KC2024 03 02.28297 10 57 11.43 +11 45 36.7          18.7 GVEE014V21
     K24E00C KB2024 03 02.29168 10 57 13.24 +11 44 26.7          18.6 GVEE014734
     K24E00C KB2024 03 02.29612 10 57 14.96 +11 43 58.5          18.5 GVEE014734
     K24E00C KB2024 03 02.30038 10 57 16.58 +11 43 31.3          18.6 GVEE014734
     K24E00C KB2024 03 02.30445 10 57 18.14 +11 43 05.5          18.4 GVEE014734
     K24E00C 1C2024 03 02.36568610 57 43.024+11 36 50.76         19.07GVEE014703
     K24E00C 1C2024 03 02.36798810 57 43.906+11 36 36.04         19.03GVEE014703
     K24E00C 1C2024 03 02.37028810 57 44.701+11 36 22.43         18.73GVEE014703
     K24E00C 1C2024 03 02.37259110 57 45.608+11 36 07.56         18.77GVEE014703
     K24E00C KC2024 03 02.50821510 58 48.82 +11 21 57.3          18.5 GVEE014900
     K24E00C KC2024 03 02.51884810 58 52.82 +11 20 53.5          18.9 GVEE014900
     K24E00C KC2024 03 02.52948310 58 56.78 +11 19 49.4          18.2 GVEE014900
     K24E00C KB2024 03 02.74628 11 00 18.24 +10 58 27.5          19.4 GVEE014O46
     K24E00C KB2024 03 02.75169 11 00 20.10 +10 57 56.1          18.3 GVEE014O46
     K24E00C KB2024 03 02.75709 11 00 21.96 +10 57 24.2          19.3 GVEE014O46
Observer details:
703 Catalina Sky Survey.  Observer J. B. Fazekas.  Measurers T. Beuden, V. F.
    Carvajal, D. Fay, J. B. Fazekas, D. C. Fuls, A. R. Gibbs, A. D. Grauer, H.
    Groeller, J. K. Hogan, R. A. Kowalski, S. M. Larson, G. J. Leonard, D.
    Rankin, R. L. Seaman, F. C. Shelly, K. W. Wierzchos.  0.68-m Schmidt + 10K
    CCD.
734 Farpoint Observatory, Eskridge.  Observers D. Cromer, G. Hug, D. Goodin,
    R. Valentine.  Measurer D. Cromer.  0.69-m f/3.54 reflector + CMO.
807 Cerro Tololo Observatory, La Serena.  Observers T. Linder, R. Holmes.
    0.61-m f/6.8 Ritchey-Chretien + CCD.
858 Tebbutt Observatory, Edgewood.  Observer F. B. Zoltowski.  0.16-m f/7
    Refractor + CCD.
900 Moriyama.  Observer Y. Ikari.  0.26-m f/7.0 reflector + CMO.
F51 Pan-STARRS 1, Haleakala.  Observers J. Herman, T. Lowe, P. Minguez, A.
    Schultz, I. Smith.  Measurers K. Chambers, T. de Boer, J. Fairlamb, H.
    Gao, M. Huber, C.-C. Lin, E. Magnier, Y. Ramanjooloo, R. Wainscoat, R.
    Weryk.  1.8-m Ritchey-Chretien + CCD.
F52 Pan-STARRS 2, Haleakala.  Observers J. Herman, T. Lowe, P. Minguez, A.
    Schultz, I. Smith.  Measurers K. Chambers, T. de Boer, J. Fairlamb, H.
    Gao, M. Huber, C.-C. Lin, E. Magnier, Y. Ramanjooloo, R. Wainscoat, R.
    Weryk.  1.8-m Ritchey-Chretien + CCD.
J57 Centro Astronomico Alto Turia, Valencia.  Observer A. Fornas.  Measurers
    A. Fornas, G. Fornas, E. Arce, V. Mas.  0.43-m f/6.8 Reflector CDK + CMO.
J95 Great Shefford.  Observer P. Birtwhistle.  0.41-m f/6.3 Schmidt-Cassegrain
    + CCD.
K19 PASTIS Observatory, Banon.  Observer C. Demeautis.  0.28-m f/2.2 reflector
    + CMO.
L01 Visnjan Observatory, Tican.  Observers K. Korlevic, L. Poropat.  Measurer
    K. Korlevic.  1.0-m f/2.9 reflector + CCD.
M28 Lesedi Telescope-SAAO Observatory, Sutherland.  Observers N. Erasmus, S.
    Potter, C. van Gend, S. Chandra, H. Worters.  Measurers T. Ngwane, N.
    Erasmus.  1.0-m f/8 Reflector + CCD.
O46 Daocheng Glacier Observatory.  Observer Z. Wang.  0.25-m f/8 reflector +
    CMO.
V21 Cewanee Observatory at DSNM.  Observer D. T. Durig.  0.40 m f/8 Ritchey-
    Chretien + 4656x3520 CCD.
V27 North Mesa Observatory, Los Alamos.  Observer B. K. Kendrick.  0.25-m f/6
    reflector + CCD.
Orbital elements:
2024 EC                                                  Earth MOID = 0.0133 AU
Epoch 2024 Mar. 31.0 TT = JDT 2460400.5                 Veres                   
M  13.53100              (2000.0)            P               Q                  
n   0.20657505     Peri.  122.70307     -0.39986706     -0.91655670             
a   2.8341151      Node   350.86181     +0.82894457     -0.35907558             
e   0.6757421      Incl.    1.98109     +0.39109748     -0.17603562             
P   4.77           H   24.03          G   0.15           U   7                  
Residuals in seconds of arc
240301 F51  0.1-  0.1-    240301 L01  0.2-  0.1+    240302 V21  2.0-  1.8+
240301 F51  0.0   0.1-    240301 J57  0.1-  0.0     240302 V21  2.3-  1.7+
240301 F51  0.0   0.1-    240301 J57  0.0   0.0     240302 V21  0.6-  1.1+
240301 F52  0.0   0.1+    240301 J57  0.0   0.0     240302 734  0.1+  0.1-
240301 F52  0.0   0.1+    240302 M28  0.5+  0.1-    240302 734  0.3+  0.0
240301 K19  0.1+  0.2+    240302 M28  0.2+  0.3+    240302 734  0.0   0.1-
240301 K19  0.0   0.3+    240302 M28  0.1-  0.2+    240302 734  0.0   0.0
240301 K19  0.3-  0.3+    240302 807  0.1-  0.1-    240302 703  0.1+  0.2-
240301 J57  0.1+  0.0     240302 807  0.1+  0.0     240302 703  0.3+  0.4-
240301 J95  0.3+  0.1+    240302 807  0.0   0.1+    240302 703  0.8-  0.5+
240301 J95  0.2+  0.2-    240302 V27  0.7+  0.1-    240302 703  0.2-  0.2+
240301 J95  0.0   0.3+    240302 V27  0.5-  0.6+    240302 900  0.4+  0.2-
240301 J95  0.0   0.2-    240302 V27  0.6-  0.7-    240302 900  0.4+  0.1+
240301 J57  0.0   0.0     240302 858  0.0   0.2-    240302 900  0.2+  0.1+
240301 L01  0.1-  0.1-    240302 V21  1.5-  1.6+    240302 O46  0.0   0.2-
240301 L01  0.3-  0.1+    240302 858  0.5+  0.0     240302 O46  0.0   0.2+
240301 J57  0.0   0.1+    240302 V21  1.5-  1.6+    240302 O46  0.1-  0.0
240301 L01  0.3-  0.0     240302 858  0.3+  0.2-
Ephemeris:
2024 EC                  a,e,i = 2.83, 0.68, 2                   q = 0.9190
Date    TT    R. A. (2000) Decl.     Delta      r    Elong.  Phase     V
2024 02 01    00 34 00.3 +13 21 01   0.1531  0.9238    62.2   109.4    23.9
...
2024 02 16    01 52 19.4 +29 10 22   0.05433 0.9714    70.9   106.0    21.6
...
2024 02 24    08 22 18.9 +38 53 26   0.03232 1.0144   140.0    38.8    18.2
...
2024 03 01    10 46 42.4 +14 20 04   0.06259 1.0530   173.3     6.3    18.6
2024 03 02    10 55 05.6 +12 17 14   0.06908 1.0599   174.9     4.8    18.8
2024 03 03    11 01 54.8 +10 34 52   0.07576 1.0669   176.0     3.8    18.9
...
2024 03 09    11 25 16.1 +04 29 28   0.1184  1.1113   178.2     1.6    19.8
...
2024 03 17    11 37 58.7 +01 03 50   0.1806  1.1755   177.6     2.0    20.9
...
2024 04 01    11 48 22.5 -01 25 27   0.3139  1.3063   166.3    10.5    22.8
M. P. C. Staff               (C) Copyright 2024 MPC           M.P.E.C. 2024-E14
    
    
More information about the Iaude
mailing list